{"data":{"norad_id":52499,"epoch":"2026-07-17T02:01:35.160672Z","epoch_age_seconds":5715155,"freshness":"OLD","line1":"1 52499U 22049BA  26198.08443473  .08589609  12463-4  25266-3 0  9994","line2":"2 52499  53.2029 158.5075 0005453 255.7359 104.3086 16.44967354232341","mean_motion":16.44967354,"eccentricity":0.0005453,"inclination_deg":53.2029,"raan_deg":158.5075,"arg_perigee_deg":255.7359,"mean_anomaly_deg":104.3086,"bstar":0.00025266,"rev_number":23234,"period_min":87.539731198824,"perigee_km":149.0606992223,"apogee_km":156.1831449027,"semimajor_km":6530.7589220625,"source":"CELESTRAK","updated_at":"2026-07-17T09:01:42.092359Z"}}